Toms River, NJ

5:24 AM EDT on June 27, 2017 (GMT -0400)
Miller

Weather History for KMJX - March, 2014

Change the Weather History Date:

Saturday, March 15, 2014

  Actual Average Record
Temperature  
Mean Temperature 52 °F -  
Max Temperature 60 °F 50 °F 85 °F (1990)
Min Temperature 44 °F 29 °F 3 °F (1993)
Degree Days  
Heating Degree Days 13    
Growing Degree Days 2 (Base 50)    
Moisture  
Dew Point 28 °F    
Average Humidity 40    
Maximum Humidity 57    
Minimum Humidity 25    
Precipitation  
Precipitation 0.00 in - - ()
Sea Level Pressure  
Sea Level Pressure 29.86 in    
Wind  
Wind Speed 10 mph (West)    
Max Wind Speed 24 mph    
Max Gust Speed 34 mph    
Visibility 10 miles    
Events      
Averages and records for this station are not official NWS values.
T = Trace of Precipitation, MM = Missing Value Source: NWS Daily Summary

Daily Weather History Graph

Daily Weather History Graph

Search for Another Location

Airport or City:

Trip Planner

Search our weather history database for the weather conditions in past years. The results will help you decide how hot, cold, wet, or windy it might be!

Date:

Astronomy

Mar. 15, 2014 Rise Set
Actual Time 7:08 AM EDT 7:04 PM EDT
Civil Twilight 6:41 AM EDT 7:30 PM EDT
Nautical Twilight 6:10 AM EDT 8:02 PM EDT
Astronomical Twilight 5:38 AM EDT 8:34 PM EDT
Moon 6:20 PM EDT (3/15) 6:19 AM EDT (3/15)
Length of Visible Light 12h 49m
Length of Day
11h 55m
Waxing Gibbous, 99% of the Moon is Illuminated
Mar 15
Waxing Gibbous
Mar 16
Full
Mar 23
Last Quarter
Mar 30
New
Apr 7
First Quarter

Hourly Weather History & Observations

Time (EDT) Temp. Windchill Dew Point Humidity Pressure Visibility Wind Dir Wind Speed Gust Speed Precip Events Conditions
12:15 AM 44.6 °F 39.2 °F 26.6 °F 49% 29.92 in 10.0 mi SSW 10.4 mph 17.3 mph N/A   Clear
12:35 AM 44.6 °F 40.7 °F 28.4 °F 53% 29.91 in 10.0 mi SSW 6.9 mph - N/A   Clear
12:55 AM 44.6 °F 40.2 °F 28.4 °F 53% 29.90 in 10.0 mi SSW 8.1 mph - N/A   Clear
1:15 AM 44.6 °F 40.2 °F 28.4 °F 53% 29.88 in 10.0 mi SSW 8.1 mph 17.3 mph N/A   Clear
1:35 AM 44.6 °F 40.7 °F 30.2 °F 57% 29.88 in 10.0 mi SSW 6.9 mph - N/A   Clear
1:55 AM 44.6 °F 40.7 °F 30.2 °F 57% 29.87 in 10.0 mi SSW 6.9 mph - N/A   Clear
2:15 AM 44.6 °F 39.7 °F 28.4 °F 53% 29.87 in 10.0 mi SSW 9.2 mph - N/A   Clear
2:35 AM 44.6 °F 40.2 °F 28.4 °F 53% 29.87 in 10.0 mi SW 8.1 mph - N/A   Scattered Clouds
2:55 AM 44.6 °F 40.7 °F 30.2 °F 57% 29.87 in 10.0 mi SW 6.9 mph - N/A   Scattered Clouds
3:15 AM 44.6 °F 41.4 °F 30.2 °F 57% 29.85 in 10.0 mi SW 5.8 mph - N/A   Clear
3:35 AM 44.6 °F 43.1 °F 30.2 °F 57% 29.85 in 10.0 mi SW 3.5 mph - N/A   Mostly Cloudy
3:55 AM 44.6 °F 40.7 °F 30.2 °F 57% 29.85 in 10.0 mi WSW 6.9 mph - N/A   Overcast
4:15 AM 46.4 °F 42.4 °F 28.4 °F 50% 29.83 in 10.0 mi SW 8.1 mph - N/A   Overcast
4:35 AM 46.4 °F 42.4 °F 28.4 °F 50% 29.83 in 10.0 mi SW 8.1 mph - N/A   Overcast
4:55 AM 48.2 °F - 26.6 °F 43% 29.83 in 10.0 mi SW 9.2 mph - N/A   Overcast
5:15 AM 48.2 °F - 28.4 °F 46% 29.81 in 10.0 mi SSW 6.9 mph - N/A   Overcast
5:35 AM 48.2 °F - 28.4 °F 46% 29.81 in 10.0 mi SSW 6.9 mph - N/A   Overcast
5:55 AM 48.2 °F - 30.2 °F 50% 29.81 in 10.0 mi SW 6.9 mph - N/A   Overcast
6:15 AM 48.2 °F - 30.2 °F 50% 29.82 in 10.0 mi SW 9.2 mph - N/A   Overcast
6:35 AM 48.2 °F - 30.2 °F 50% 29.81 in 10.0 mi SW 8.1 mph - N/A   Overcast
6:55 AM 48.2 °F - 28.4 °F 46% 29.81 in 10.0 mi SW 9.2 mph - N/A   Overcast
7:15 AM 48.2 °F - 28.4 °F 46% 29.81 in 10.0 mi SW 8.1 mph - N/A   Overcast
7:35 AM 48.2 °F - 28.4 °F 46% 29.81 in 10.0 mi SW 8.1 mph - N/A   Scattered Clouds
7:55 AM 48.2 °F - 28.4 °F 46% 29.81 in 10.0 mi SW 8.1 mph - N/A   Clear
8:15 AM 50.0 °F - 28.4 °F 43% 29.81 in 10.0 mi WSW 9.2 mph 17.3 mph N/A   Partly Cloudy
8:35 AM 50.0 °F - 28.4 °F 43% 29.82 in 10.0 mi WSW 9.2 mph 19.6 mph N/A   Clear
8:55 AM 51.8 °F - 28.4 °F 41% 29.82 in 10.0 mi WSW 10.4 mph 16.1 mph N/A   Clear
9:15 AM 53.6 °F - 28.4 °F 38% 29.82 in 10.0 mi West 18.4 mph 26.5 mph N/A   Clear
9:35 AM 55.4 °F - 30.2 °F 38% 29.82 in 10.0 mi West 11.5 mph 21.9 mph N/A   Clear
9:55 AM 55.4 °F - 30.2 °F 38% 29.81 in 10.0 mi WSW 13.8 mph 19.6 mph N/A   Scattered Clouds
10:15 AM 57.2 °F - 30.2 °F 36% 29.81 in 10.0 mi WSW 20.7 mph 25.3 mph N/A   Partly Cloudy
10:35 AM 57.2 °F - 32.0 °F 38% 29.82 in 10.0 mi West 15.0 mph 26.5 mph N/A   Partly Cloudy
10:55 AM 59.0 °F - 32.0 °F 36% 29.82 in 10.0 mi West 16.1 mph 25.3 mph N/A   Partly Cloudy
11:15 AM 57.2 °F - 30.2 °F 36% 29.82 in 10.0 mi West 21.9 mph 27.6 mph N/A   Mostly Cloudy
11:35 AM 57.2 °F - 32.0 °F 38% 29.82 in 10.0 mi West 18.4 mph 25.3 mph N/A   Mostly Cloudy
11:55 AM 59.0 °F - 32.0 °F 36% 29.82 in 10.0 mi West 23.0 mph 34.5 mph N/A   Clear
12:15 PM 60.8 °F - 33.8 °F 36% 29.82 in 10.0 mi West 21.9 mph 31.1 mph N/A   Clear
12:35 PM 59.0 °F - 30.2 °F 34% 29.82 in 10.0 mi West 18.4 mph 26.5 mph N/A   Scattered Clouds
12:55 PM 60.8 °F - 30.2 °F 31% 29.82 in 10.0 mi West 21.9 mph 33.4 mph N/A   Scattered Clouds
1:15 PM 60.8 °F - 28.4 °F 29% 29.82 in 10.0 mi West 21.9 mph 33.4 mph N/A   Scattered Clouds
1:35 PM 57.2 °F - 28.4 °F 33% 29.82 in 10.0 mi WNW 15.0 mph 26.5 mph N/A   Mostly Cloudy
1:55 PM 59.0 °F - 30.2 °F 34% 29.82 in 10.0 mi WNW 17.3 mph 27.6 mph N/A   Mostly Cloudy
2:15 PM 57.2 °F - 30.2 °F 36% 29.81 in 10.0 mi West 15.0 mph 26.5 mph N/A   Scattered Clouds
2:35 PM 60.8 °F - 30.2 °F 31% 29.81 in 10.0 mi WNW 23.0 mph 28.8 mph N/A   Scattered Clouds
2:55 PM 60.8 °F - 30.2 °F 31% 29.80 in 10.0 mi West 17.3 mph 28.8 mph N/A   Scattered Clouds
3:15 PM 60.8 °F - 28.4 °F 29% 29.81 in 10.0 mi West 23.0 mph 29.9 mph N/A   Partly Cloudy
3:35 PM 59.0 °F - 28.4 °F 31% 29.81 in 10.0 mi West 19.6 mph 27.6 mph N/A   Clear
3:55 PM 60.8 °F - 26.6 °F 27% 29.81 in 10.0 mi West 13.8 mph 29.9 mph N/A   Clear
4:15 PM 60.8 °F - 24.8 °F 25% 29.82 in 10.0 mi West 16.1 mph 27.6 mph N/A   Clear
4:35 PM 60.8 °F - 24.8 °F 25% 29.82 in 10.0 mi WNW 16.1 mph 29.9 mph N/A   Scattered Clouds
4:55 PM 59.0 °F - 24.8 °F 27% 29.83 in 10.0 mi WNW 17.3 mph 29.9 mph N/A   Mostly Cloudy
5:15 PM 59.0 °F - 24.8 °F 27% 29.83 in 10.0 mi WNW 24.2 mph 31.1 mph N/A   Partly Cloudy
5:35 PM 59.0 °F - 24.8 °F 27% 29.85 in 10.0 mi WNW 16.1 mph 31.1 mph N/A   Clear
5:55 PM 57.2 °F - 24.8 °F 29% 29.86 in 10.0 mi WNW 18.4 mph 25.3 mph N/A   Clear
6:15 PM 57.2 °F - 24.8 °F 29% 29.87 in 10.0 mi NW 11.5 mph 25.3 mph N/A   Clear
6:35 PM 55.4 °F - 24.8 °F 31% 29.88 in 10.0 mi WNW 10.4 mph 20.7 mph N/A   Clear
6:55 PM 55.4 °F - 24.8 °F 31% 29.90 in 10.0 mi NW 6.9 mph - N/A   Clear
7:15 PM 53.6 °F - 23.0 °F 30% 29.91 in 10.0 mi NW 8.1 mph - N/A   Clear
7:35 PM 53.6 °F - 23.0 °F 30% 29.92 in 10.0 mi NW 4.6 mph - N/A   Clear
7:55 PM 51.8 °F - 23.0 °F 33% 29.93 in 10.0 mi NW 4.6 mph - N/A   Clear
8:15 PM 48.2 °F - 24.8 °F 40% 29.95 in 10.0 mi Calm Calm - N/A   Clear
8:35 PM 48.2 °F - 24.8 °F 40% 29.96 in 10.0 mi Calm Calm - N/A   Clear
8:55 PM 48.2 °F - 23.0 °F 37% 29.97 in 10.0 mi Calm Calm - N/A   Clear
9:15 PM 46.4 °F - 23.0 °F 40% 29.98 in 10.0 mi Calm Calm - N/A   Clear
9:35 PM 46.4 °F 45.2 °F 24.8 °F 43% 29.98 in 10.0 mi NW 3.5 mph - N/A   Clear
9:55 PM 48.2 °F - 23.0 °F 37% 29.99 in 10.0 mi NW 5.8 mph - N/A   Clear
10:15 PM 48.2 °F - 23.0 °F 37% 29.99 in 10.0 mi NW 5.8 mph - N/A   Clear
10:35 PM 46.4 °F 43.5 °F 23.0 °F 40% 30.00 in 10.0 mi NW 5.8 mph - N/A   Clear
10:55 PM 46.4 °F 44.3 °F 23.0 °F 40% 30.01 in 10.0 mi WNW 4.6 mph - N/A   Clear
11:15 PM 46.4 °F 43.5 °F 23.0 °F 40% 30.01 in 10.0 mi NW 5.8 mph - N/A   Clear
11:35 PM 46.4 °F 43.5 °F 21.2 °F 37% 30.02 in 10.0 mi NW 5.8 mph - N/A   Clear
11:55 PM 44.6 °F 43.1 °F 21.2 °F 39% 30.02 in 10.0 mi WNW 3.5 mph - N/A   Clear